Location: Bauerbach
(50.4985°N, 10.3912°E)
Time: 17:42:27
(UTC+00:00)

CBERS-1 - Pass Details

Date: 13 January 2026
Orbit: 765 x 772 km, 98.9° (Epoch: 16 February)

Event Time Altitude Azimuth Distance (km) Brightness Sun altitude
Rises 06:25:55 0° 10° (N) 3,246 7.1 -7.6°
Reaches altitude 10° 06:28:21 10° 2° (N) 2,315 6.3 -7.2°
Maximum altitude 06:33:02 38° 296° (WNW) 1,158 4.5 -6.6°
Drops below altitude 10° 06:37:41 10° 229° (SW) 2,302 6.3 -5.9°
Sets 06:40:06 0° 222° (SW) 3,225 7.1 -5.6°
